[[{"header":{"parameterUnit":"m.s-1","parameterCategory":1,"la1":30.2991,"la2":30.254,"lo1":-89.0895,"lo2":-89.0444,"dy":0.0017,"dx":0.0017,"nx":28,"ny":28,"refTime":"2024-03-21T03:00:00:Z","depth":0,"parameterNumber":2,"parameterNumberName":"U-component_of_WINDS"},"data":[0,0,0,0,0,0,0,0,0,0,0,0,0,0,0,0,0,0,0,0,0,0,0,0,0,0,0,0,0,0,0,0,0,0,0,0,0,0,0,0,0,0,0,0,0,0,0,0,0,0,0,0,0,0,0,0,0,0,-1.0928,-1.0928,0,-1.0904,-1.0904,-1.0904,-1.0891,-1.0891,-1.0891,-1.0891,-1.0866,-1.0865,-1.0865,0,0,0,0,0,0,0,0,0,0,0,0,0,-1.0962,-1.0961,-1.0928,-1.0928,-1.0927,-1.0904,-1.0904,-1.0904,-1.0891,-1.0891,-1.0891,-1.0891,-1.0866,-1.0865,-1.0865,0,0,0,0,0,0,0,0,0,0,0,0,0,-1.0944,-1.0961,-1.0928,-1.0918,-1.0917,-1.0904,-1.0904,-1.0903,-1.0891,-1.0891,-1.0891,-1.0891,-1.0866,-1.0865,-1.0864,-1.0859,0,0,-1.0861,-1.0861,0,0,0,0,0,0,0,0,-1.0945,-1.0942,-1.092,-1.0919,-1.0918,-1.0901,-1.0907,-1.0889,-1.0891,-1.0901,-1.0891,-1.0891,-1.0877,-1.0875,-1.0871,-1.0858,-1.0857,-1.0861,-1.0861,-1.086,-1.086,0,0,0,0,0,0,0,-1.0946,-1.0943,-1.0919,-1.092,-1.0918,-1.0915,-1.0912,-1.0903,-1.089,-1.09,-1.0899,-1.0896,-1.0877,-1.0872,-1.087,-1.0857,-1.0861,-1.0861,-1.086,-1.086,-1.0837,-1.0837,0,0,0,0,0,0,-1.0949,-1.0944,-1.0919,-1.0918,-1.0931,-1.0914,-1.0911,-1.0906,-1.089,-1.0887,-1.0896,-1.0896,-1.0874,-1.0872,-1.0869,-1.0862,-1.086,-1.0859,-1.0859,-1.0837,-1.0837,-1.0837,0,0,0,0,0,0,-1.095,-1.0947,-1.092,-1.0931,-1.0927,-1.0914,-1.0908,-1.0906,-1.0901,-1.0887,-1.0884,-1.0894,-1.0874,-1.0871,-1.0862,-1.0861,-1.0859,-1.0858,-1.0837,-1.0837,-1.0837,-1.0847,0,0,0,0,0,0,-1.0951,-1.0947,-1.0945,-1.0931,-1.0927,-1.0913,-1.0908,-1.0905,-1.0899,-1.0898,-1.0884,-1.0882,-1.0873,-1.0863,-1.0861,-1.0859,-1.0857,-1.0837,-1.0837,-1.0837,-1.0846,-1.0847,-1.0848,0,0,0,0,0,-1.0952,-1.0949,-1.0945,-1.0942,-1.0924,-1.0913,-1.0911,-1.0901,-1.0899,-1.0897,-1.0888,-1.0882,-1.0861,-1.0862,-1.0859,-1.0858,-1.0837,-1.0837,-1.0837,-1.0846,-1.0847,-1.0848,0,0,0,0,0,0,-1.0963,-1.0947,-1.0943,-1.0935,-1.0926,-1.0911,-1.0908,-1.0902,-1.0893,-1.0893,-1.0881,-1.0878,-1.087,-1.0863,-1.0864,-1.0851,-1.0849,-1.0848,-1.0856,-1.0857,-1.0858,-1.0859,-1.0857,0,0,0,0,0,-1.0965,-1.0958,-1.0944,-1.0938,-1.0934,-1.0922,-1.0917,-1.091,-1.09,-1.0896,-1.0886,-1.0876,-1.0867,-1.0862,-1.0853,-1.0845,-1.0842,-1.0843,-1.0843,-1.0844,-1.0843,-1.0838,-1.0838,-1.0837,-1.0837,-1.0837,0,0,-1.0968,-1.0959,-1.0955,-1.094,-1.0932,-1.0925,-1.0919,-1.0911,-1.0905,-1.0895,-1.0885,-1.0878,-1.0866,-1.0858,-1.0853,-1.0851,-1.0843,-1.0844,-1.0844,-1.0843,-1.0838,-1.0838,-1.0838,-1.0837,-1.0837,-1.0837,0,0,-1.0971,-1.0963,-1.0957,-1.0949,-1.0937,-1.0929,-1.0928,-1.0914,-1.0908,-1.0899,-1.0891,-1.0883,-1.0868,-1.086,-1.0854,-1.0852,-1.0847,-1.085,-1.0853,-1.0848,-1.0848,-1.0848,-1.0847,-1.0847,-1.0849,-1.0849,-1.0849,0,-1.0976,-1.0965,-1.0955,-1.0948,-1.0941,-1.0931,-1.0925,-1.0918,-1.0904,-1.0899,-1.0897,-1.0878,-1.0869,-1.0859,-1.0858,-1.0854,-1.0851,-1.0851,-1.0849,-1.0849,-1.0849,-1.0847,-1.0847,-1.085,-1.085,-1.085,-1.085,0,-1.0972,-1.0965,-1.0961,-1.0948,-1.0941,-1.0934,-1.0923,-1.0917,-1.0911,-1.0903,-1.0893,-1.0882,-1.0871,-1.0868,-1.0862,-1.0856,-1.0855,-1.0851,-1.0848,-1.0849,-1.0848,-1.0848,-1.0851,-1.085,-1.085,-1.085,0,0,-1.0982,-1.0962,-1.0961,-1.0954,-1.094,-1.0934,-1.0926,-1.0915,-1.091,-1.09,-1.0894,-1.0881,-1.0877,-1.087,-1.0863,-1.0859,-1.0857,-1.0855,-1.0855,-1.0856,-1.085,-1.0853,-1.0852,-1.0853,-1.0853,-1.0853,-1.0851,0,-1.0982,-1.0968,-1.0959,-1.0949,-1.0941,-1.0931,-1.0925,-1.0915,-1.0907,-1.0899,-1.089,-1.0881,-1.0877,-1.0873,-1.0868,-1.0859,-1.0856,-1.0859,-1.0847,-1.0846,-1.085,-1.0852,-1.0855,-1.0853,-1.085,-1.085,-1.085,0,-1.098,-1.0971,-1.096,-1.0946,-1.0942,-1.0937,-1.0925,-1.0918,-1.0906,-1.0901,-1.0893,-1.0885,-1.0877,-1.0874,-1.0862,-1.0864,-1.0858,-1.0853,-1.0852,-1.0851,-1.0848,-1.085,-1.0852,-1.0852,-1.0849,-1.0849,-1.0849,0,-1.0988,-1.0972,-1.0964,-1.0958,-1.0942,-1.0938,-1.0931,-1.0919,-1.0913,-1.0903,-1.0898,-1.0887,-1.0881,-1.0873,-1.0862,-1.0862,-1.0851,-1.0848,-1.0846,-1.0846,-1.0844,-1.0844,-1.0845,-1.0841,-1.0841,-1.0841,-1.0841,0,-1.0989,-1.0983,-1.0967,-1.0962,-1.0954,-1.0943,-1.0936,-1.0928,-1.0917,-1.091,-1.0901,-1.0894,-1.0881,-1.0872,-1.0864,-1.0855,-1.0852,-1.0847,-1.0845,-1.0848,-1.0848,-1.0844,-1.0844,-1.084,-1.0841,-1.0841,-1.0841,0,-1.0996,-1.0985,-1.0975,-1.096,-1.0956,-1.0951,-1.0938,-1.0933,-1.0924,-1.0915,-1.0912,-1.0899,-1.0888,-1.0877,-1.0862,-1.0857,-1.0848,-1.0845,-1.0852,-1.0851,-1.0849,-1.0849,-1.0847,-1.0846,-1.0843,-1.0843,-1.0843,0,-1.0998,-1.0993,-1.0977,-1.0971,-1.0964,-1.0956,-1.0949,-1.0937,-1.0931,-1.0917,-1.0913,-1.0902,-1.0892,-1.0876,-1.0864,-1.0853,-1.085,-1.085,-1.0848,-1.0851,-1.0849,-1.085,-1.0849,-1.085,-1.085,-1.085,-1.085,0,-1.1001,-1.0996,-1.0987,-1.0976,-1.0968,-1.0959,-1.0949,-1.0945,-1.0931,-1.0924,-1.0913,-1.0906,-1.0891,-1.088,-1.0867,-1.0859,-1.0852,-1.0851,-1.085,-1.0853,-1.0857,-1.0855,-1.0853,-1.0851,-1.0851,-1.0851,-1.0851,-1.0851,-1.1005,-1.1,-1.0988,-1.0978,-1.097,-1.0961,-1.0954,-1.0945,-1.0936,-1.0923,-1.0916,-1.0905,-1.0893,-1.0875,-1.0868,-1.0859,-1.0857,-1.0855,-1.0855,-1.0855,-1.0855,-1.0859,-1.0856,-1.0856,-1.0856,-1.0856,-1.0856,0,-1.1008,-1.1,-1.0991,-1.0977,-1.0969,-1.0964,-1.0952,-1.0946,-1.0936,-1.0926,-1.0916,-1.0904,-1.0892,-1.088,-1.0868,-1.0863,-1.086,-1.086,-1.0861,-1.0859,-1.0858,-1.086,-1.0863,-1.0863,-1.0863,-1.0863,-1.0863,-1.0863,-1.1009,-1.1,-1.0993,-1.0979,-1.0971,-1.096,-1.0954,-1.0945,-1.0937,-1.0923,-1.0914,-1.0906,-1.0894,-1.0881,-1.0871,-1.0867,-1.0863,-1.0865,-1.086,-1.086,-1.0859,-1.0859,-1.086,-1.0864,-1.0864,-1.0862,-1.0862,-1.0862]},{"header":{"parameterUnit":"m.s-1","parameterCategory":1,"la1":30.2991,"la2":30.254,"lo1":-89.0895,"lo2":-89.0444,"dy":0.0017,"dx":0.0017,"nx":28,"ny":28,"refTime":"2024-03-21T03:00:00:Z","depth":0,"parameterNumber":3,"parameterNumberName":"V-component_of_WINDS"},"data":[0,0,0,0,0,0,0,0,0,0,0,0,0,0,0,0,0,0,0,0,0,0,0,0,0,0,0,0,0,0,0,0,0,0,0,0,0,0,0,0,0,0,0,0,0,0,0,0,0,0,0,0,0,0,0,0,0,0,-1.1423,-1.1423,0,-1.1455,-1.1455,-1.1455,-1.1461,-1.146,-1.146,-1.146,-1.1491,-1.1492,-1.1493,0,0,0,0,0,0,0,0,0,0,0,0,0,-1.1366,-1.1367,-1.1423,-1.1424,-1.1424,-1.1455,-1.1455,-1.1456,-1.1461,-1.146,-1.146,-1.146,-1.149,-1.1491,-1.1493,0,0,0,0,0,0,0,0,0,0,0,0,0,-1.1393,-1.1367,-1.1423,-1.143,-1.1431,-1.1455,-1.1455,-1.1456,-1.1461,-1.146,-1.146,-1.146,-1.149,-1.1491,-1.1493,-1.1511,0,0,-1.1498,-1.1498,0,0,0,0,0,0,0,0,-1.1392,-1.1395,-1.1429,-1.143,-1.1431,-1.1453,-1.1446,-1.1474,-1.1461,-1.145,-1.146,-1.1459,-1.1478,-1.1481,-1.1488,-1.1512,-1.1514,-1.1498,-1.1499,-1.15,-1.15,0,0,0,0,0,0,0,-1.139,-1.1394,-1.1436,-1.1429,-1.1431,-1.1431,-1.1435,-1.1451,-1.1466,-1.145,-1.1451,-1.1455,-1.1479,-1.1486,-1.1488,-1.1514,-1.1498,-1.1499,-1.15,-1.1501,-1.1554,-1.1555,0,0,0,0,0,0,-1.1387,-1.1392,-1.1435,-1.1437,-1.141,-1.1433,-1.1437,-1.1447,-1.1466,-1.1468,-1.1455,-1.1455,-1.1484,-1.1487,-1.149,-1.1511,-1.15,-1.1501,-1.1502,-1.1554,-1.1555,-1.1555,0,0,0,0,0,0,-1.1385,-1.139,-1.1433,-1.1415,-1.142,-1.1434,-1.1445,-1.1447,-1.1455,-1.1469,-1.1471,-1.146,-1.1483,-1.1487,-1.1506,-1.1512,-1.1502,-1.1503,-1.1553,-1.1554,-1.1555,-1.1555,0,0,0,0,0,0,-1.1384,-1.139,-1.1397,-1.1415,-1.1421,-1.1449,-1.1446,-1.1448,-1.1458,-1.1458,-1.1474,-1.1477,-1.1483,-1.1503,-1.1507,-1.1514,-1.1504,-1.1553,-1.1554,-1.1555,-1.1555,-1.1556,-1.1557,0,0,0,0,0,-1.1382,-1.1396,-1.1398,-1.1403,-1.1431,-1.145,-1.1453,-1.1461,-1.1458,-1.1465,-1.1475,-1.1476,-1.1511,-1.1505,-1.1509,-1.1517,-1.1552,-1.1554,-1.1555,-1.1554,-1.1556,-1.1557,0,0,0,0,0,0,-1.1378,-1.1398,-1.14,-1.1421,-1.1434,-1.145,-1.146,-1.1463,-1.1476,-1.1475,-1.1484,-1.1488,-1.1506,-1.1514,-1.1506,-1.1536,-1.1532,-1.1534,-1.153,-1.1531,-1.1532,-1.153,-1.1506,0,0,0,0,0,-1.138,-1.1394,-1.1411,-1.1427,-1.1433,-1.1446,-1.1454,-1.1459,-1.1473,-1.1478,-1.1488,-1.1501,-1.1515,-1.1524,-1.1537,-1.1556,-1.1559,-1.1564,-1.1565,-1.1566,-1.1567,-1.1577,-1.1579,-1.1559,-1.1559,-1.1558,0,0,-1.1383,-1.1396,-1.1404,-1.1427,-1.1437,-1.1451,-1.145,-1.1465,-1.1475,-1.148,-1.1498,-1.1506,-1.152,-1.1539,-1.1548,-1.1546,-1.1574,-1.1567,-1.1568,-1.1569,-1.1579,-1.1581,-1.1582,-1.1559,-1.1559,-1.1559,0,0,-1.1396,-1.1408,-1.1422,-1.1433,-1.1449,-1.1457,-1.1461,-1.1478,-1.1483,-1.1502,-1.1505,-1.1518,-1.1541,-1.1551,-1.156,-1.1577,-1.1579,-1.1581,-1.1587,-1.1597,-1.1598,-1.16,-1.1605,-1.1607,-1.1583,-1.1583,-1.1583,0,-1.1398,-1.142,-1.1429,-1.1444,-1.1454,-1.1459,-1.1474,-1.1484,-1.1503,-1.1509,-1.1507,-1.1537,-1.1548,-1.1568,-1.1573,-1.1579,-1.1583,-1.1579,-1.1597,-1.1599,-1.16,-1.1606,-1.1608,-1.1583,-1.1583,-1.1583,-1.1583,0,-1.1421,-1.1436,-1.1446,-1.1465,-1.1476,-1.1491,-1.1502,-1.1511,-1.1516,-1.1524,-1.1542,-1.1555,-1.1571,-1.1576,-1.158,-1.1598,-1.1596,-1.1596,-1.1592,-1.1602,-1.1608,-1.161,-1.1583,-1.1583,-1.1583,-1.1583,0,0,-1.1432,-1.1457,-1.146,-1.1469,-1.1488,-1.1499,-1.1514,-1.153,-1.1538,-1.1551,-1.1563,-1.1584,-1.1584,-1.1593,-1.1598,-1.1607,-1.1619,-1.1606,-1.1606,-1.1607,-1.1638,-1.1638,-1.164,-1.1621,-1.1621,-1.1622,-1.1637,0,-1.1447,-1.1474,-1.1483,-1.1505,-1.1519,-1.1525,-1.1537,-1.155,-1.1558,-1.157,-1.1579,-1.1593,-1.1592,-1.1598,-1.1607,-1.1616,-1.1626,-1.1615,-1.1631,-1.1632,-1.1627,-1.1643,-1.1643,-1.1657,-1.1639,-1.164,-1.164,0,-1.1468,-1.1482,-1.1506,-1.1522,-1.1528,-1.154,-1.1555,-1.1568,-1.1582,-1.1587,-1.1597,-1.1602,-1.1617,-1.1613,-1.1634,-1.1626,-1.1634,-1.1639,-1.164,-1.1641,-1.1636,-1.1644,-1.1661,-1.1663,-1.1643,-1.1643,-1.1643,0,-1.1473,-1.1498,-1.1515,-1.1522,-1.1543,-1.155,-1.1559,-1.1573,-1.1582,-1.1595,-1.1601,-1.1616,-1.1624,-1.1636,-1.1644,-1.164,-1.1664,-1.166,-1.1668,-1.1668,-1.1672,-1.1671,-1.169,-1.1678,-1.1678,-1.1678,-1.1678,0,-1.1488,-1.1502,-1.1518,-1.1528,-1.1544,-1.1554,-1.1569,-1.1578,-1.159,-1.1602,-1.1608,-1.1619,-1.163,-1.1643,-1.1649,-1.1665,-1.1669,-1.1673,-1.1674,-1.1672,-1.1671,-1.1676,-1.1675,-1.1678,-1.1678,-1.1678,-1.1678,0,-1.1495,-1.1507,-1.1526,-1.1544,-1.1548,-1.1559,-1.1574,-1.1584,-1.1593,-1.1608,-1.1612,-1.1625,-1.164,-1.165,-1.1669,-1.1673,-1.169,-1.1692,-1.1685,-1.1686,-1.1693,-1.1692,-1.1714,-1.1717,-1.1704,-1.1704,-1.1704,0,-1.1504,-1.1515,-1.1534,-1.1543,-1.1552,-1.1566,-1.1575,-1.1586,-1.1595,-1.1612,-1.162,-1.1636,-1.1648,-1.1672,-1.1683,-1.1697,-1.1699,-1.1706,-1.1701,-1.1698,-1.1698,-1.1697,-1.1698,-1.1706,-1.1706,-1.1706,-1.1706,0,-1.1518,-1.1523,-1.1537,-1.1553,-1.1564,-1.1577,-1.159,-1.1596,-1.1609,-1.1619,-1.1635,-1.1645,-1.1664,-1.1679,-1.1695,-1.1703,-1.1706,-1.1708,-1.171,-1.1707,-1.1703,-1.1705,-1.1687,-1.1707,-1.1707,-1.1707,-1.1707,-1.1707,-1.1526,-1.1536,-1.1551,-1.1566,-1.1577,-1.1589,-1.1599,-1.1609,-1.1623,-1.164,-1.1645,-1.1661,-1.1674,-1.1696,-1.1704,-1.1717,-1.1716,-1.172,-1.172,-1.1721,-1.1721,-1.1702,-1.172,-1.172,-1.172,-1.172,-1.172,0,-1.1539,-1.1549,-1.1563,-1.1581,-1.1593,-1.1596,-1.1611,-1.162,-1.1634,-1.1647,-1.166,-1.1677,-1.1692,-1.1704,-1.1719,-1.1727,-1.1729,-1.173,-1.1729,-1.1731,-1.1721,-1.1717,-1.1729,-1.1729,-1.1729,-1.1729,-1.1729,-1.1729,-1.1547,-1.1564,-1.1571,-1.1594,-1.1603,-1.162,-1.1627,-1.1638,-1.1649,-1.1668,-1.1681,-1.1689,-1.1701,-1.1717,-1.1731,-1.1734,-1.1739,-1.174,-1.1743,-1.1733,-1.1732,-1.1731,-1.1727,-1.1741,-1.1741,-1.1753,-1.1753,-1.1753]}]]